SCP
0 0 0 0 0 0 0 0 0 0 0 0 0 0 0 0 0 0 0 0 0 0 0 0 0 0 0 0 0 0 0 0 0 0 0 0 0 0 0 0 0 0 0 0
0 0 0 0 0 0 0 0 0 0 0 0 0 0 0 0 0 0 0 0 0 0 0 0 0 0 0 0 0 0 0 0 0 0 0 0 0 0 0 0 0 0 0 0
0 0 0 0 0 0 0 0 0 0 0 0 0 0 0 0 0 0 0 0 0 0 0 0 0 0 0 0 0 0 0 -0 0 0 0 0 0 0 0 0 0 0 0 0
0 0 0 0 0 0 0 0 0 0 0 0 0 0 0 0 0 0 0 0 0 0 0 0 0 0 0 0 0 -0 -0 -0 0 0 0 0 0 0 0 0 0 0 0 0
0 0 0 0 0 0 0 0 0 0 0 0 0 0 0 0 0 0 0 0 0 0 0 0 0 0 0 0 0 0 -0 0 0 0 0 0 0 0 0 0 0 0 0 0
0 0 0 0 0 0 0 0 0 0 0 0 0 0 0 0 0 0 0 0 0 0 0 0 0 0 0 0 0 0 -0 0 0 0 0 0 0 0 0 0 0 0 0 0
0 0 0 0 0 0 0 0 0 0 0 0 0 0 0 0 0 0 0 0 0 0 0 0 0 0 0 0 0 -0 -0 0 -0 0 0 0 0 0 0 0 0 0 0 0
0 0 0 0 0 0 0 0 0 0 0 0 0 0 0 0 0 0 0 0 0 0 0 0 0 0 0 0 0 0 -0 0 -0 0 0 0 0 0 0 0 0 0 0 0
0 0 0 0 0 0 0 0 0 0 0 0 0 0 0 0 0 0 0 0 0 0 0 0 0 0 0 0 -0 -0 -0 0 0 0 0 0 0 0 0 0 0 0 0 0
0 0 0 0 0 0 0 0 0 0 0 0 0 0 0 0 0 0 0 0 0 -0 -0 0 0 0 0 -0 -0 0 -0 0 0 0 0 0 0 0 0 0 0 0 0 0
0 0 0 0 0 0 0 0 0 0 0 0 0 0 0 0 0 0 0 0 0 -0 0 0 0 0 0 -0 -0 0 0 0 -0 0 0 -0 0 0 0 0 0 0 0 0
0 0 0 0 0 0 0 0 0 0 0 0 0 0 0 0 0 0 0 0 0 -0 -0 -0 0 0 0 -0 -0 -0 0 0 -0 -0 0 0 0 0 0 0 0 0 0 0
0 0 0 -0 0 0 0 0 0 0 0 0 0 0 0 0 0 0 0 0 0 0 0 0 0 0 -0 -0 0 -0 -0 0 -0 -0 -0 -0 0 -0 -0 0 -0 0 -0 0
0 0 0 -0 0 -0 0 0 0 0 0 0 0 0 0 0 0 0 0 0 0 0 0 0 0 0 -0 -0 0 -0 -0 -0 0 -0 -0 -0 0 0 -0 -0 -0 0 0 0
0 0 0 -0 -0 -0 -0 0 0 0 0 0 0 0 0 0 0 0 0 0 0 0 -0 -0 -0 -0 -0 -0 -0 -0 -0 0 0 -0 -0 -0 -0 0 0 0 -0 -0 -0 -0
0 -0 -0 -0 -0 -0 -0 0 0 -0 -0 0 0 0 0 0 0 0 -0 -0 -0 -0 -0 -0 -0 -0 -0 -0 -0 0 -0 -0 0 0 -0 -0 0 -0 0 -0 0 0 -0 -0
-0 -0 -0 -0 -0 -0 0 0 -0 0 0 0 0 0 0 0 0 -0 -0 -0 -0 -0 -0 -0 -0 -0 -0 -0 -0 -0 0 0 -0 0 0 0 -0 0 0 0 -0 0 -0 -0
0 0 0 -0 -0 0 0 -0 -0 0 0 0 0 0 -0 -0 -0 -0 -0 -0 -0 -0 -0 -0 -0 -0 -0 -0 -0 0 0 0 0 0 0 0 0 0 0 0 0 -0 -0 -0
-0 -0 -0 -0 -0 0 0 0 0 0 -0 0 0 -0 -0 -0 -0 -0 -0 -0 -0 -0 -0 -0 -0 0 -0 -0 -0 -0 0 0 0 0 0 0 0 0 0 0 0 -0 -0 -0
-0 -0 -0 -0 -0 -0 0 0 0 -0 0 0 0 -0 -0 -0 -0 0 -0 -0 -0 -0 -0 -0 -0 -0 -0 0 -0 -0 -0 0 0 0 0 0 0 0 0 0 0 0 0 -0
-0 -0 -0 -0 -0 0 0 0 0 -0 0 0 -0 0 0 0 0 0 0 -0 -0 -0 -0 -0 -0 -0 -0 -0 -0 -0 -0 0 0 0 0 0 0 0 0 0 0 0 0 0
-0 -0 -0 -0 0 0 0 0 0 -0 -0 -0 0 0 0 0 0 0 0 -0 0 -0 -0 -0 -0 -0 -0 -0 -0 -0 -0 -0 -0 -0 0 0 0 0 0 0 0 0 0 0
0 0 -0 -0 0 0 0 0 0 0 -0 -0 0 0 0 0 0 0 0 0 -0 -0 -0 -0 -0 -0 -0 -0 -0 -0 -0 -0 -0 -0 -0 -0 -0 0 0 0 0 0 0 0
0 0 -0 0 0 0 0 0 0 0 -0 0 0 0 0 0 0 0 0 0 -0 -0 0 -0 -0 -0 -0 -0 -0 -0 -0 0 -0 -0 -0 -0 -0 -0 -0 0 0 0 0 0
0 0 0 0 0 0 0 0 0 0 0 0 0 0 0 0 0 0 0 0 0 -0 0 0 -0 -0 0 0 0 0 0 0 0 0 -0 -0 -0 -0 -0 -0 -0 0 0 0
0 0 0 0 0 0 0 0 0 0 0 0 0 0 0 0 0 0 0 0 0 -0 0 0 0 0 0 0 0 0 0 0 0 0 0 0 -0 -0 -0 -0 -0 -0 -0 -0
0 0 0 0 0 0 0 0 0 0 0 0 0 0 0 0 0 0 0 0 0 0 0 0 0 0 0 0 0 0 0 0 0 0 0 0 0 0 -0 -0 -0 -0 -0 -0
Wind_Speed_500mb
5 3 2 9 16 24 28 28 27 22 11 22 25 26 33 28 23 18 9 5 11 18 23 25 28 29 29 28 27 27 29 32 35 38 39 43 46 48 53 55 61 63 67 65
22 23 20 22 21 25 26 23 16 21 29 21 5 13 30 25 16 9 10 9 15 20 23 26 29 31 31 30 29 29 30 34 35 38 42 45 48 52 56 57 59 59 57 63
21 16 14 23 30 32 32 29 28 29 23 8 10 15 20 21 11 8 5 12 19 23 25 28 29 30 31 31 28 29 32 33 36 39 44 47 49 51 54 55 57 58 59 67
9 6 18 3 3 9 20 26 29 23 11 6 6 15 15 8 7 0 9 16 20 23 26 28 30 30 31 29 28 29 33 35 37 41 47 50 52 55 59 62 61 61 67 57
9 15 13 18 9 7 16 14 10 15 12 15 19 23 18 10 8 9 13 16 19 23 26 29 29 31 34 32 28 31 31 35 38 43 49 51 55 59 61 62 61 65 57 55
9 7 9 14 7 2 3 11 14 16 19 19 18 13 17 6 7 9 13 16 19 23 25 27 31 35 36 33 31 34 35 40 42 45 48 54 62 58 58 58 65 60 54 56
13 10 9 6 6 6 16 8 19 18 17 12 7 12 13 5 6 10 13 17 20 21 26 31 33 34 34 34 34 38 42 43 44 43 47 54 55 53 52 58 55 47 46 54
10 15 12 10 11 10 18 26 24 21 18 20 19 14 11 8 8 10 13 16 20 22 25 27 31 34 35 36 39 41 40 39 38 46 46 48 45 48 50 47 39 49 54 50
13 5 12 8 18 18 18 26 21 20 18 16 15 14 11 9 9 11 15 18 21 22 23 28 36 35 37 39 41 41 33 32 36 42 43 42 46 45 41 33 48 47 48 52
11 14 14 23 28 29 27 27 23 21 18 16 17 16 14 10 10 11 15 19 21 23 25 28 34 37 39 39 41 35 30 31 35 41 39 37 39 33 34 34 47 52 52 57
5 14 20 22 29 32 30 28 22 22 19 19 17 17 14 13 13 13 17 20 22 24 26 29 32 35 40 45 43 36 31 32 36 37 36 35 35 32 27 33 33 50 66 73
5 15 10 31 27 24 32 28 23 22 22 21 21 20 16 15 14 15 18 20 22 24 26 30 33 37 41 43 46 41 33 32 35 36 35 38 38 33 28 30 43 47 63 74
7 12 7 29 34 29 32 26 22 21 22 23 21 20 19 17 16 18 20 22 23 25 27 30 31 35 41 43 42 48 37 33 34 37 36 35 42 40 47 39 28 37 57 66
12 20 27 35 35 33 32 27 26 24 22 21 19 18 17 17 17 20 24 24 23 26 28 30 31 34 39 42 39 38 46 38 35 36 37 36 35 39 35 38 46 47 47 62
27 12 28 33 38 34 30 27 26 24 22 18 15 15 15 17 19 21 23 23 23 27 31 32 33 36 39 41 39 37 34 49 45 40 35 38 38 39 37 40 40 41 46 52
26 31 39 39 36 32 26 23 24 22 17 14 12 13 14 16 18 21 23 25 29 33 35 36 37 39 39 41 37 35 36 44 44 50 49 41 43 45 45 42 45 43 41 52
37 36 37 35 32 28 24 22 21 18 15 12 11 11 13 15 18 21 23 26 26 29 33 35 38 37 38 42 37 35 36 38 46 36 43 55 52 49 48 49 47 45 40 37
23 29 30 32 32 31 29 26 23 20 17 14 13 12 13 17 20 20 21 24 25 26 35 35 38 36 38 43 36 36 36 38 38 39 39 41 50 57 54 50 54 52 49 40
33 36 34 32 32 34 31 29 25 21 18 15 14 14 14 16 18 19 19 24 28 30 36 37 42 36 36 42 39 34 37 38 38 39 41 41 42 43 47 48 49 56 57 52
41 38 38 39 37 35 34 29 25 21 18 16 15 14 14 17 18 17 15 21 27 27 28 38 36 35 35 38 43 35 37 38 39 39 42 42 43 43 43 48 49 47 51 59
42 40 43 42 39 33 30 26 22 20 18 17 16 14 14 14 17 19 18 18 25 27 29 34 37 38 31 38 36 35 37 37 38 39 41 42 43 44 45 46 45 47 48 50
39 42 41 39 36 32 27 24 21 20 20 19 17 14 14 17 16 17 25 22 22 29 27 31 39 38 39 38 31 34 36 37 37 38 39 40 42 43 44 46 46 46 46 46
39 39 38 34 33 31 27 23 20 19 19 18 16 15 15 16 16 15 16 25 19 26 26 32 37 36 40 30 31 31 34 36 37 38 40 42 41 42 44 44 43 45 46 47
41 39 36 34 32 29 27 22 20 20 19 17 16 15 13 10 13 15 17 23 28 29 24 36 36 38 37 28 31 32 33 35 36 36 37 40 40 40 44 47 46 45 44 45
39 38 36 33 29 26 24 21 20 19 18 15 14 14 14 14 12 11 13 16 27 24 22 33 39 38 29 31 32 32 33 35 37 37 37 37 38 40 42 47 46 49 48 44
37 33 31 25 24 24 21 17 16 15 13 12 12 11 11 12 12 13 13 20 19 24 22 24 30 31 29 30 31 32 33 35 36 37 39 39 39 40 42 48 49 50 47 46
32 33 29 27 23 21 19 17 16 14 13 10 10 10 10 10 13 11 15 13 16 19 22 23 24 29 29 29 29 31 32 33 38 39 37 39 40 42 45 48 48 48 48 47
Wind_Direction_500mb
205 208 192 252 208 209 228 235 248 264 231 284 186 201 193 193 194 197 212 258 323 324 321 321 319 317 318 315 314 309 308 310 310 312 311 307 309 309 305 305 301 296 296 291
179 205 230 246 240 244 242 246 269 265 266 273 240 219 190 204 213 228 226 285 308 316 317 317 315 316 315 314 310 304 308 309 312 314 315 316 309 310 304 304 306 304 296 292
236 164 250 249 241 244 246 228 236 246 259 132 185 217 194 196 210 214 270 312 322 323 320 316 316 315 312 307 305 301 303 306 310 315 313 310 311 308 307 305 305 305 299 301
233 176 240 52 25 294 276 254 236 235 282 276 241 149 145 153 164 219 335 328 325 322 320 319 317 312 308 307 299 299 302 305 309 311 308 313 314 312 313 318 315 310 306 298
197 221 284 270 181 215 211 208 204 224 144 133 129 137 134 108 60 9 346 336 328 325 322 319 316 311 307 308 298 302 307 309 309 306 311 309 315 315 316 319 317 315 308 299
198 196 230 67 84 174 210 191 134 144 144 148 171 213 104 98 13 356 351 344 336 330 324 321 319 318 316 313 304 304 308 309 309 311 309 320 325 324 325 324 320 313 304 299
192 213 255 67 117 180 225 108 129 135 131 132 120 58 99 64 24 7 357 350 345 340 339 335 332 328 325 320 315 306 306 312 316 312 319 326 329 323 328 331 323 314 312 324
193 210 241 124 161 242 102 112 117 116 110 105 111 105 95 64 31 9 354 344 345 345 345 344 339 335 333 331 323 317 317 322 321 321 328 332 325 334 337 333 319 329 331 329
189 199 91 88 86 97 121 121 114 112 102 108 109 101 89 73 39 10 356 354 350 344 345 350 352 348 340 334 331 330 331 331 333 333 336 339 339 346 341 330 335 327 325 322
167 155 137 127 114 108 113 111 108 110 107 104 105 98 89 68 42 24 7 359 352 354 350 350 352 353 349 343 337 339 340 340 342 341 342 349 356 359 335 329 340 357 345 335
8 127 131 142 135 121 115 115 115 108 101 100 99 87 85 67 37 17 1 354 357 350 350 352 353 353 351 351 349 349 348 343 345 347 349 349 359 356 355 360 347 0 358 352
199 200 195 179 161 143 139 137 130 119 107 96 91 85 83 64 39 19 7 359 357 355 355 353 356 355 355 355 358 356 354 349 348 352 353 350 344 345 352 359 350 352 349 352
213 143 127 135 147 147 140 137 132 127 119 107 90 83 75 64 41 19 14 11 2 1 355 359 359 359 357 358 359 3 359 352 351 359 354 354 349 343 338 345 347 359 342 358
173 140 128 140 141 141 138 134 127 125 120 112 99 82 71 57 34 22 15 13 7 5 5 4 2 359 358 358 2 357 9 6 358 0 1 360 358 354 347 345 343 347 348 6
168 181 153 142 140 139 137 135 131 130 128 118 98 81 64 47 33 24 17 17 13 15 14 11 7 1 1 1 1 1 1 9 12 8 9 13 8 6 4 3 357 353 351 11
140 129 137 141 139 140 140 144 142 138 131 123 103 80 62 48 36 29 25 23 21 17 16 12 8 5 3 2 5 2 4 1 9 9 14 17 16 17 16 12 10 8 5 5
139 143 142 142 142 141 141 142 141 139 136 121 113 89 61 46 36 30 30 27 26 21 19 13 9 9 6 8 11 6 6 4 6 10 4 13 20 19 21 21 17 16 11 3
148 146 148 146 143 139 136 133 127 121 117 118 114 92 65 49 39 33 30 28 26 23 18 15 14 18 10 11 21 11 11 8 8 7 9 8 7 8 15 16 21 19 21 14
142 138 137 136 136 135 132 127 122 115 104 102 106 94 73 52 40 39 31 32 26 21 14 15 19 17 13 14 34 16 15 13 13 10 9 12 11 10 5 7 7 13 18 21
134 131 131 130 130 131 128 123 118 109 99 102 107 91 68 48 41 41 39 32 30 15 11 16 16 16 14 14 27 18 18 18 15 14 9 14 11 10 9 5 6 5 7 16
131 134 132 131 129 128 124 120 115 104 96 102 108 92 71 53 45 46 38 28 15 26 14 8 14 18 16 29 19 17 19 18 15 16 14 12 10 10 8 7 8 3 3 5
138 137 135 134 133 128 124 118 110 103 104 104 97 81 62 53 50 42 38 36 10 33 22 13 19 20 39 33 14 14 16 14 15 14 14 12 10 9 7 4 6 1 0 0
140 139 138 136 137 132 124 114 106 105 107 102 89 72 66 60 57 52 32 23 21 39 25 17 18 28 38 19 13 14 14 12 12 12 12 10 8 6 5 1 3 357 357 358
133 132 135 139 136 130 123 115 105 105 109 97 83 70 75 60 40 46 26 15 27 38 10 11 18 34 35 16 13 13 10 7 8 7 7 4 4 1 1 1 0 358 356 354
136 136 136 137 135 134 129 122 110 108 108 94 75 58 57 56 70 47 43 20 15 38 18 356 12 28 17 16 14 10 9 2 5 4 3 359 1 357 356 358 356 354 354 354
140 141 142 141 142 139 136 127 122 121 119 98 75 59 53 51 40 42 17 26 15 25 16 9 8 17 14 11 14 9 7 2 4 2 1 356 357 354 353 355 354 351 347 346
143 142 140 137 137 137 139 133 120 113 110 106 85 64 54 46 28 39 34 15 13 14 13 12 5 6 15 13 7 6 4 2 355 2 360 356 354 352 350 350 347 345 343 340
Wind_Speed_850mb
5 3 2 9 16 24 28 28 27 22 11 22 25 26 33 28 23 18 9 5 11 18 23 25 28 29 29 28 27 27 29 32 35 38 39 43 46 48 53 55 61 63 67 65
22 23 20 22 21 25 26 23 16 21 29 21 5 13 30 25 16 9 10 9 15 20 23 26 29 31 31 30 29 29 30 34 35 38 42 45 48 52 56 57 59 59 57 63
21 16 14 23 30 32 32 29 28 29 23 8 10 15 20 21 11 8 5 12 19 23 25 28 29 30 31 31 28 29 32 33 36 39 44 47 49 51 54 55 57 58 59 67
9 6 18 3 3 9 20 26 29 23 11 6 6 15 15 8 7 0 9 16 20 23 26 28 30 30 31 29 28 29 33 35 37 41 47 50 52 55 59 62 61 61 67 57
9 15 13 18 9 7 16 14 10 15 12 15 19 23 18 10 8 9 13 16 19 23 26 29 29 31 34 32 28 31 31 35 38 43 49 51 55 59 61 62 61 65 57 55
9 7 9 14 7 2 3 11 14 16 19 19 18 13 17 6 7 9 13 16 19 23 25 27 31 35 36 33 31 34 35 40 42 45 48 54 62 58 58 58 65 60 54 56
13 10 9 6 6 6 16 8 19 18 17 12 7 12 13 5 6 10 13 17 20 21 26 31 33 34 34 34 34 38 42 43 44 43 47 54 55 53 52 58 55 47 46 54
10 15 12 10 11 10 18 26 24 21 18 20 19 14 11 8 8 10 13 16 20 22 25 27 31 34 35 36 39 41 40 39 38 46 46 48 45 48 50 47 39 49 54 50
13 5 12 8 18 18 18 26 21 20 18 16 15 14 11 9 9 11 15 18 21 22 23 28 36 35 37 39 41 41 33 32 36 42 43 42 46 45 41 33 48 47 48 52
11 14 14 23 28 29 27 27 23 21 18 16 17 16 14 10 10 11 15 19 21 23 25 28 34 37 39 39 41 35 30 31 35 41 39 37 39 33 34 34 47 52 52 57
5 14 20 22 29 32 30 28 22 22 19 19 17 17 14 13 13 13 17 20 22 24 26 29 32 35 40 45 43 36 31 32 36 37 36 35 35 32 27 33 33 50 66 73
5 15 10 31 27 24 32 28 23 22 22 21 21 20 16 15 14 15 18 20 22 24 26 30 33 37 41 43 46 41 33 32 35 36 35 38 38 33 28 30 43 47 63 74
7 12 7 29 34 29 32 26 22 21 22 23 21 20 19 17 16 18 20 22 23 25 27 30 31 35 41 43 42 48 37 33 34 37 36 35 42 40 47 39 28 37 57 66
12 20 27 35 35 33 32 27 26 24 22 21 19 18 17 17 17 20 24 24 23 26 28 30 31 34 39 42 39 38 46 38 35 36 37 36 35 39 35 38 46 47 47 62
27 12 28 33 38 34 30 27 26 24 22 18 15 15 15 17 19 21 23 23 23 27 31 32 33 36 39 41 39 37 34 49 45 40 35 38 38 39 37 40 40 41 46 52
26 31 39 39 36 32 26 23 24 22 17 14 12 13 14 16 18 21 23 25 29 33 35 36 37 39 39 41 37 35 36 44 44 50 49 41 43 45 45 42 45 43 41 52
37 36 37 35 32 28 24 22 21 18 15 12 11 11 13 15 18 21 23 26 26 29 33 35 38 37 38 42 37 35 36 38 46 36 43 55 52 49 48 49 47 45 40 37
23 29 30 32 32 31 29 26 23 20 17 14 13 12 13 17 20 20 21 24 25 26 35 35 38 36 38 43 36 36 36 38 38 39 39 41 50 57 54 50 54 52 49 40
33 36 34 32 32 34 31 29 25 21 18 15 14 14 14 16 18 19 19 24 28 30 36 37 42 36 36 42 39 34 37 38 38 39 41 41 42 43 47 48 49 56 57 52
41 38 38 39 37 35 34 29 25 21 18 16 15 14 14 17 18 17 15 21 27 27 28 38 36 35 35 38 43 35 37 38 39 39 42 42 43 43 43 48 49 47 51 59
42 40 43 42 39 33 30 26 22 20 18 17 16 14 14 14 17 19 18 18 25 27 29 34 37 38 31 38 36 35 37 37 38 39 41 42 43 44 45 46 45 47 48 50
39 42 41 39 36 32 27 24 21 20 20 19 17 14 14 17 16 17 25 22 22 29 27 31 39 38 39 38 31 34 36 37 37 38 39 40 42 43 44 46 46 46 46 46
39 39 38 34 33 31 27 23 20 19 19 18 16 15 15 16 16 15 16 25 19 26 26 32 37 36 40 30 31 31 34 36 37 38 40 42 41 42 44 44 43 45 46 47
41 39 36 34 32 29 27 22 20 20 19 17 16 15 13 10 13 15 17 23 28 29 24 36 36 38 37 28 31 32 33 35 36 36 37 40 40 40 44 47 46 45 44 45
39 38 36 33 29 26 24 21 20 19 18 15 14 14 14 14 12 11 13 16 27 24 22 33 39 38 29 31 32 32 33 35 37 37 37 37 38 40 42 47 46 49 48 44
37 33 31 25 24 24 21 17 16 15 13 12 12 11 11 12 12 13 13 20 19 24 22 24 30 31 29 30 31 32 33 35 36 37 39 39 39 40 42 48 49 50 47 46
32 33 29 27 23 21 19 17 16 14 13 10 10 10 10 10 13 11 15 13 16 19 22 23 24 29 29 29 29 31 32 33 38 39 37 39 40 42 45 48 48 48 48 47
Wind_Direction_850mb
205 208 192 252 208 209 228 235 248 264 231 284 186 201 193 193 194 197 212 258 323 324 321 321 319 317 318 315 314 309 308 310 310 312 311 307 309 309 305 305 301 296 296 291
179 205 230 246 240 244 242 246 269 265 266 273 240 219 190 204 213 228 226 285 308 316 317 317 315 316 315 314 310 304 308 309 312 314 315 316 309 310 304 304 306 304 296 292
236 164 250 249 241 244 246 228 236 246 259 132 185 217 194 196 210 214 270 312 322 323 320 316 316 315 312 307 305 301 303 306 310 315 313 310 311 308 307 305 305 305 299 301
233 176 240 52 25 294 276 254 236 235 282 276 241 149 145 153 164 219 335 328 325 322 320 319 317 312 308 307 299 299 302 305 309 311 308 313 314 312 313 318 315 310 306 298
197 221 284 270 181 215 211 208 204 224 144 133 129 137 134 108 60 9 346 336 328 325 322 319 316 311 307 308 298 302 307 309 309 306 311 309 315 315 316 319 317 315 308 299
198 196 230 67 84 174 210 191 134 144 144 148 171 213 104 98 13 356 351 344 336 330 324 321 319 318 316 313 304 304 308 309 309 311 309 320 325 324 325 324 320 313 304 299
192 213 255 67 117 180 225 108 129 135 131 132 120 58 99 64 24 7 357 350 345 340 339 335 332 328 325 320 315 306 306 312 316 312 319 326 329 323 328 331 323 314 312 324
193 210 241 124 161 242 102 112 117 116 110 105 111 105 95 64 31 9 354 344 345 345 345 344 339 335 333 331 323 317 317 322 321 321 328 332 325 334 337 333 319 329 331 329
189 199 91 88 86 97 121 121 114 112 102 108 109 101 89 73 39 10 356 354 350 344 345 350 352 348 340 334 331 330 331 331 333 333 336 339 339 346 341 330 335 327 325 322
167 155 137 127 114 108 113 111 108 110 107 104 105 98 89 68 42 24 7 359 352 354 350 350 352 353 349 343 337 339 340 340 342 341 342 349 356 359 335 329 340 357 345 335
8 127 131 142 135 121 115 115 115 108 101 100 99 87 85 67 37 17 1 354 357 350 350 352 353 353 351 351 349 349 348 343 345 347 349 349 359 356 355 360 347 0 358 352
199 200 195 179 161 143 139 137 130 119 107 96 91 85 83 64 39 19 7 359 357 355 355 353 356 355 355 355 358 356 354 349 348 352 353 350 344 345 352 359 350 352 349 352
213 143 127 135 147 147 140 137 132 127 119 107 90 83 75 64 41 19 14 11 2 1 355 359 359 359 357 358 359 3 359 352 351 359 354 354 349 343 338 345 347 359 342 358
173 140 128 140 141 141 138 134 127 125 120 112 99 82 71 57 34 22 15 13 7 5 5 4 2 359 358 358 2 357 9 6 358 0 1 360 358 354 347 345 343 347 348 6
168 181 153 142 140 139 137 135 131 130 128 118 98 81 64 47 33 24 17 17 13 15 14 11 7 1 1 1 1 1 1 9 12 8 9 13 8 6 4 3 357 353 351 11
140 129 137 141 139 140 140 144 142 138 131 123 103 80 62 48 36 29 25 23 21 17 16 12 8 5 3 2 5 2 4 1 9 9 14 17 16 17 16 12 10 8 5 5
139 143 142 142 142 141 141 142 141 139 136 121 113 89 61 46 36 30 30 27 26 21 19 13 9 9 6 8 11 6 6 4 6 10 4 13 20 19 21 21 17 16 11 3
148 146 148 146 143 139 136 133 127 121 117 118 114 92 65 49 39 33 30 28 26 23 18 15 14 18 10 11 21 11 11 8 8 7 9 8 7 8 15 16 21 19 21 14
142 138 137 136 136 135 132 127 122 115 104 102 106 94 73 52 40 39 31 32 26 21 14 15 19 17 13 14 34 16 15 13 13 10 9 12 11 10 5 7 7 13 18 21
134 131 131 130 130 131 128 123 118 109 99 102 107 91 68 48 41 41 39 32 30 15 11 16 16 16 14 14 27 18 18 18 15 14 9 14 11 10 9 5 6 5 7 16
131 134 132 131 129 128 124 120 115 104 96 102 108 92 71 53 45 46 38 28 15 26 14 8 14 18 16 29 19 17 19 18 15 16 14 12 10 10 8 7 8 3 3 5
138 137 135 134 133 128 124 118 110 103 104 104 97 81 62 53 50 42 38 36 10 33 22 13 19 20 39 33 14 14 16 14 15 14 14 12 10 9 7 4 6 1 0 0
140 139 138 136 137 132 124 114 106 105 107 102 89 72 66 60 57 52 32 23 21 39 25 17 18 28 38 19 13 14 14 12 12 12 12 10 8 6 5 1 3 357 357 358
133 132 135 139 136 130 123 115 105 105 109 97 83 70 75 60 40 46 26 15 27 38 10 11 18 34 35 16 13 13 10 7 8 7 7 4 4 1 1 1 0 358 356 354
136 136 136 137 135 134 129 122 110 108 108 94 75 58 57 56 70 47 43 20 15 38 18 356 12 28 17 16 14 10 9 2 5 4 3 359 1 357 356 358 356 354 354 354
140 141 142 141 142 139 136 127 122 121 119 98 75 59 53 51 40 42 17 26 15 25 16 9 8 17 14 11 14 9 7 2 4 2 1 356 357 354 353 355 354 351 347 346
143 142 140 137 137 137 139 133 120 113 110 106 85 64 54 46 28 39 34 15 13 14 13 12 5 6 15 13 7 6 4 2 355 2 360 356 354 352 350 350 347 345 343 340